Miscellaneous Local Product
Issued by NWS North Platte, NE

Home | Current Version | Previous Version | Text Only | Print | Product List | Glossary On
Versions: 1 2 3 4 5 6 7 8 9 10 11 12 13 14 15 16 17 18 19 20 21 22 23 24 25 26 27 28 29 30 31 32 33 34 35 36 37 38 39 40 41 42 43 44 45 46 47 48 49 50
000
AXUS43 KLBF 270610
MISLBF


WESTERN AND NORTH CENTRAL NEBRASKA HOURLY WEATHER ROUNDUP
NATIONAL WEATHER SERVICE NORTH PLATTE NE
100 AM CDT WED JUL 27 2016

NOTE: "FAIR" INDICATES FEW OR NO CLOUDS BELOW 12,000 FEET WITH NO
SIGNIFICANT WEATHER AND/OR OBSTRUCTIONS TO VISIBILITY.

NOTE: STATIONS NOT REPORTING VARIABLES SUCH AS SKY/WEATHER OR
PRESSURE ARE PROVIDED BY RAWS AND APRS NETWORKS AND ARE NOT UNDER
NATIONAL WEATHER SERVICE QUALITY CONTROL.

...OBSERVATIONS IN AND NEAR THE EASTERN PANHANDLE OF NEBRASKA...

CITY           SKY/WX    TMP DP  RH WIND       PRES   REMARKS
PINE RIDGE     CLOUDY    61  60  97 SW8       30.07R
CHADRON        CLOUDY    65  60  84 CALM      30.06S
ALLIANCE       MOCLDY    65  58  78 E9        30.07R
SIDNEY         CLOUDY    73  50  44 E8        30.14R
CRESCENT LAKE    N/A     64  56  77 E10G20      N/A
$$

...OBSERVATIONS IN NORTHERN NEBRASKA AND FAR SOUTHERN SOUTH DAKOTA...

CITY           SKY/WX    TMP DP  RH WIND       PRES   REMARKS
WINNER         MOCLDY    68  59  73 S32G45    29.94F
VALENTINE      CLOUDY    66  65  96 MISG      29.97F
THEDFORD       CLOUDY    65  61  85 SE7       30.10R
AINSWORTH      RAIN      61  61 100 E23       30.10F
O`NEILL        TSTM      65  63  93 N22       30.11R
ORD              N/A    N/A N/A N/A MISG        N/A  THUNDER
BROKEN BOW     TSTM      62  61  96 N18G29    30.11F
VALENTINE NWR    N/A     62  60  92 E17G26      N/A
BUTTE            N/A     65  61  86 S13G21      N/A
HALSEY           N/A     63  60  90 N9G22       N/A
EWING            N/A     72  67  83 S3          N/A
$$

...OBSERVATIONS IN SOUTHWEST NEBRASKA AND FAR NORTHEAST COLORADO...

CITY           SKY/WX    TMP DP  RH WIND       PRES   REMARKS
WRAY           FAIR      72  55  56 S3        30.08R
HOLYOKE        FAIR      66  57  72 CALM      30.11S
IMPERIAL       CLOUDY    70  58  65 NW6       30.07R
OGALLALA       CLOUDY    74  64  69 E10G17    30.09R
NORTH PLATTE   LGT RAIN  63  58  83 NE20G28   30.12F
MCCOOK         CLOUDY    77  65  66 SE6       30.03F
LEXINGTON      TSTM      62  60  92 N29G64    30.19R VSB 3/4
STAPLETON        N/A     60  58  95 CALM        N/A
GOTHENBURG       N/A     76  62  62 E3          N/A
CALLAWAY         N/A     61  58  91 N25         N/A
$$

...OBSERVATIONS IN CENTRAL LINCOLN COUNTY AREA...

CITY           SKY/WX    TMP DP  RH WIND       PRES   REMARKS
N.P. AIRPORT   LGT RAIN  63  58  83 NE20G28   30.12F
N.P. DOWNTOWN    N/A     64  59  83 NE12        N/A
N.P. SOUTHEAST   N/A     65  59  80 N13G25      N/A
N.P. HILLCREST   N/A     63  59  86 E20G28      N/A
$$

...SOME OBSERVATIONS FROM AROUND THE REGION...

CITY           SKY/WX    TMP DP  RH WIND       PRES   REMARKS
DENVER         PTCLDY    68  41  37 S13       30.14F
LARAMIE        CLOUDY    59  37  44 SW9       30.29S
CHEYENNE       CLEAR     63  48  58 NW3       30.22S
SCOTTSBLUFF    CLOUDY    67  56  67 SW8       30.08R
RAPID CITY     CLEAR     66  58  75 NW12      30.09R
BISMARCK       CLEAR     63  61  93 SE6       30.03S
PIERRE         CLOUDY    69  63  81 NW5       29.97R
SIOUX FALLS    CLOUDY    75  64  68 S13       29.99R
OMAHA          PTCLDY    75  66  73 SE5       30.00F
GRAND ISLAND   PTCLDY    72  66  81 S8        30.02F
KANSAS CITY    CLEAR     71  67  87 NE5       30.01S
WICHITA        PTCLDY    77  72  84 SE7       29.99S
OKLAHOMA CITY  MOCLDY    77  74  90 S3        29.97S
DALLAS         MOCLDY    82  72  71 SE6       29.91S
AMARILLO       CLEAR     71  63  75 SE9       30.10F
DODGE CITY     CLEAR     70  66  87 SE3       30.05F
HAYS           CLOUDY    73  64  73 SE7       30.02S
GOODLAND       PTCLDY    69  54  58 S10       30.05F
$$




USA.gov is the U.S. government's official web portal to all federal, state and local government web resources and services.